Date String (YYYY-MM-DD hh:mm:ss) UTC,Instrument flags,absolute air pressure of the measurement (hPa),sample flow rate (lpm),inlet stack bypass flow (lpm),air temperature of the measurement (°C),ambient temperature measured by the external sensor (°C),aerosol sample conditioner tube jacket temperature (°C),OPC LED temperature (°C),internal box temperature (°C),relative humidity of the measurement (%),span deviation,mass concentration of particles derived from Lorenz-Mie calculation of OPC scattering (μg/m³),mass concentration of particles derived from Lorenz-Mie calculation of OPC scattering (μg/m³),mass concentration of particles derived from Lorenz-Mie calculation of OPC scattering (μg/m³)
DateTimeUTC,F1_M11,P_M11,Q1_M11,Q2_M11,T1_M11,T2_M11,T3_M11,T4_M11,T5_M11,U1_M11,ZSPAN_M11,X2_M11,X0_M11,X1_M11
2024-01-27 04:00:00,SystemResetWarning,0836.6,5.00,000.00,023.0,022.1,000.0,031.3,024.4,16.0,0000.0,0003.75,0006.04,0003.57
2024-01-27 04:01:00,SystemResetWarning,0836.6,5.00,000.00,023.0,022.1,000.0,031.3,024.4,16.0,0000.0,0003.81,0005.91,0003.62
2024-01-27 04:02:00,SystemResetWarning,0836.6,5.00,000.00,023.0,022.1,000.0,031.3,024.4,15.9,0000.0,0003.85,0005.90,0003.66
2024-01-27 04:03:00,SystemResetWarning,0836.6,5.00,000.00,023.0,022.1,000.0,031.3,024.4,15.9,0000.0,0003.83,0005.52,0003.65
2024-01-27 04:04:00,SystemResetWarning,0836.6,5.00,000.00,023.0,022.1,000.0,031.3,024.4,15.9,0000.0,0003.78,0005.25,0003.60
2024-01-27 04:05:00,SystemResetWarning,0836.6,5.00,000.00,023.0,022.1,000.0,031.3,024.4,15.9,0000.0,0003.72,0005.52,0003.55
2024-01-27 04:06:00,SystemResetWarning,0836.6,5.00,000.00,023.0,022.1,000.0,031.3,024.4,15.9,0000.0,0003.69,0005.45,0003.51
2024-01-27 04:07:00,SystemResetWarning,0836.6,5.00,000.00,023.0,022.1,000.0,031.3,024.4,15.9,0000.0,0003.64,0005.34,0003.46
2024-01-27 04:08:00,SystemResetWarning,0836.6,5.01,000.00,023.0,022.1,000.0,031.3,024.4,15.9,0000.0,0003.59,0005.23,0003.41
2024-01-27 04:09:00,SystemResetWarning,0836.6,5.00,000.00,023.0,022.1,000.0,031.3,024.4,15.9,0000.0,0003.53,0005.12,0003.36
2024-01-27 04:10:00,SystemResetWarning,0836.6,5.00,000.00,023.0,022.1,000.0,031.3,024.4,15.9,0000.0,0003.45,0004.88,0003.29
2024-01-27 04:11:00,SystemResetWarning,0836.7,5.00,000.00,023.0,022.1,000.0,031.3,024.4,15.9,0000.0,0003.40,0004.79,0003.24
2024-01-27 04:12:00,SystemResetWarning,0836.7,5.00,000.00,023.0,022.1,000.0,031.3,024.4,15.9,0000.0,0003.34,0004.71,0003.20
2024-01-27 04:13:00,SystemResetWarning,0836.7,5.00,000.00,023.0,022.0,000.0,031.3,024.4,15.9,0000.0,0003.31,0004.61,0003.16
2024-01-27 04:14:00,SystemResetWarning,0836.7,5.00,000.00,023.0,022.0,000.0,031.3,024.4,15.9,0000.0,0003.30,0004.60,0003.14
2024-01-27 04:15:00,SystemResetWarning,0836.7,5.00,000.00,023.0,022.0,000.0,031.3,024.4,15.9,0000.0,0003.29,0004.50,0003.13
2024-01-27 04:16:00,SystemResetWarning,0836.8,5.00,000.00,023.0,022.0,000.0,031.3,024.4,15.8,0000.0,0003.29,0004.08,0003.12
2024-01-27 04:17:00,SystemResetWarning,0836.8,5.00,000.00,023.0,022.0,000.0,031.3,024.3,16.1,0000.0,0003.27,0004.23,0003.10
2024-01-27 04:18:00,SystemResetWarning,0836.8,5.00,000.00,023.0,022.0,000.0,031.3,024.3,16.3,0000.0,0003.27,0004.73,0003.10
2024-01-27 04:19:00,SystemResetWarning,0836.8,5.00,000.00,023.0,022.0,000.0,031.3,024.3,16.3,0000.0,0003.27,0004.72,0003.10
2024-01-27 04:20:00,SystemResetWarning,0836.8,5.00,000.00,023.0,021.9,000.0,031.3,024.3,16.5,0000.0,0003.26,0004.72,0003.10
2024-01-27 04:21:00,SystemResetWarning,0836.8,5.00,000.00,023.0,021.9,000.0,031.3,024.3,16.4,0000.0,0003.26,0004.72,0003.10
2024-01-27 04:22:00,SystemResetWarning,0836.8,5.00,000.00,023.0,021.9,000.0,031.3,024.3,16.3,0000.0,0003.26,0004.73,0003.10
2024-01-27 04:23:00,SystemResetWarning,0836.8,5.00,000.00,022.9,021.9,000.0,031.3,024.3,16.3,0000.0,0003.24,0004.60,0003.10
2024-01-27 04:24:00,SystemResetWarning,0836.8,5.00,000.00,022.9,021.9,000.0,031.3,024.3,16.3,0000.0,0003.22,0004.57,0003.08
2024-01-27 04:25:00,SystemResetWarning,0836.8,5.00,000.00,022.9,021.9,000.0,031.3,024.3,16.4,0000.0,0003.21,0004.56,0003.05
2024-01-27 04:26:00,SystemResetWarning,0836.8,5.00,000.00,022.9,021.9,000.0,031.3,024.3,16.3,0000.0,0003.21,0004.62,0003.04
2024-01-27 04:27:00,SystemResetWarning,0836.8,5.00,000.00,022.9,021.9,000.0,031.3,024.3,16.2,0000.0,0003.21,0004.59,0003.04
2024-01-27 04:28:00,SystemResetWarning,0836.8,5.00,000.00,022.9,021.9,000.0,031.3,024.3,16.5,0000.0,0003.24,0004.55,0003.03
2024-01-27 04:29:00,SystemResetWarning,0836.8,5.00,000.00,022.9,021.9,000.0,031.2,024.3,16.5,0000.0,0003.23,0003.95,0003.02
2024-01-27 04:30:00,SystemResetWarning,0836.8,5.00,000.00,022.9,021.8,000.0,031.2,024.3,16.6,0000.0,0003.23,0004.32,0003.02
2024-01-27 04:31:00,SystemResetWarning,0836.8,5.00,000.00,022.9,021.8,000.0,031.2,024.3,16.6,0000.0,0003.23,0004.43,0003.02
2024-01-27 04:32:00,SystemResetWarning,0836.8,5.00,000.00,022.9,021.8,000.0,031.2,024.3,16.5,0000.0,0003.25,0004.51,0003.01
2024-01-27 04:33:00,SystemResetWarning,0836.8,5.00,000.00,022.9,021.8,000.0,031.2,024.3,16.6,0000.0,0003.25,0004.55,0003.00
2024-01-27 04:34:00,SystemResetWarning,0836.8,5.00,000.00,022.9,021.8,000.0,031.2,024.3,16.6,0000.0,0003.27,0004.66,0002.99
2024-01-27 04:35:00,SystemResetWarning,0836.8,4.99,000.00,022.9,021.8,000.0,031.2,024.2,16.6,0000.0,0003.28,0005.58,0002.98
2024-01-27 04:36:00,SystemResetWarning,0836.8,5.00,000.00,022.9,021.7,000.0,031.2,024.2,16.7,0000.0,0003.28,0005.92,0002.97
2024-01-27 04:37:00,SystemResetWarning,0836.8,5.00,000.00,022.9,021.7,000.0,031.2,024.2,16.7,0000.0,0003.28,0006.63,0002.98
2024-01-27 04:38:00,SystemResetWarning,0836.8,5.00,000.00,022.8,021.7,000.0,031.2,024.2,16.7,0000.0,0003.26,0006.66,0002.98
2024-01-27 04:39:00,SystemResetWarning,0836.8,5.01,000.00,022.8,021.7,000.0,031.2,024.2,16.8,0000.0,0003.25,0006.69,0002.99
2024-01-27 04:40:00,SystemResetWarning,0836.8,5.00,000.00,022.8,021.7,000.0,031.2,024.2,16.8,0000.0,0003.26,0006.71,0002.99
2024-01-27 04:41:00,SystemResetWarning,0836.8,5.00,000.00,022.8,021.6,000.0,031.2,024.2,16.8,0000.0,0003.27,0006.46,0003.00
2024-01-27 04:42:00,SystemResetWarning,0836.8,5.00,000.00,022.8,021.6,000.0,031.2,024.1,16.8,0000.0,0003.31,0006.72,0003.09
2024-01-27 04:43:00,SystemResetWarning,0836.8,4.99,000.00,022.8,021.6,000.0,031.1,024.1,16.8,0000.0,0003.35,0007.35,0003.14
2024-01-27 04:44:00,SystemResetWarning,0836.8,5.00,000.00,022.8,021.6,000.0,031.1,024.1,16.8,0000.0,0003.40,0007.38,0003.20
2024-01-27 04:45:00,SystemResetWarning,0836.8,5.01,000.00,022.8,021.6,000.0,031.1,024.1,16.8,0000.0,0003.45,0007.40,0003.26
2024-01-27 04:46:00,SystemResetWarning,0836.8,5.00,000.00,022.8,021.6,000.0,031.1,024.1,16.7,0000.0,0003.51,0006.91,0003.32
2024-01-27 04:47:00,SystemResetWarning,0836.8,5.00,000.00,022.8,021.6,000.0,031.1,024.1,16.6,0000.0,0003.57,0006.75,0003.36
2024-01-27 04:48:00,SystemResetWarning,0836.8,5.00,000.00,022.7,021.6,000.0,031.1,024.1,16.6,0000.0,0003.59,0006.20,0003.39
2024-01-27 04:49:00,SystemResetWarning,0836.8,4.99,000.00,022.7,021.5,000.0,031.1,024.1,16.7,0000.0,0003.63,0006.02,0003.43
2024-01-27 04:50:00,SystemResetWarning,0836.8,4.99,000.00,022.7,021.5,000.0,031.1,024.1,16.7,0000.0,0003.67,0006.73,0003.48
2024-01-27 04:51:00,SystemResetWarning,0836.8,5.00,000.00,022.7,021.5,000.0,031.1,024.0,16.7,0000.0,0003.70,0006.98,0003.51
2024-01-27 04:52:00,SystemResetWarning,0836.8,4.99,000.00,022.7,021.5,000.0,031.1,024.0,16.8,0000.0,0003.73,0007.02,0003.54
2024-01-27 04:53:00,SystemResetWarning,0836.8,5.00,000.00,022.7,021.5,000.0,031.1,024.0,16.8,0000.0,0003.74,0006.92,0003.56
2024-01-27 04:54:00,SystemResetWarning,0836.8,5.00,000.00,022.7,021.5,000.0,031.1,024.1,16.8,0000.0,0003.76,0006.09,0003.58
2024-01-27 04:55:00,SystemResetWarning,0836.8,5.01,000.00,022.7,021.5,000.0,031.0,024.0,16.8,0000.0,0003.79,0006.16,0003.60
2024-01-27 04:56:00,SystemResetWarning,0836.8,5.00,000.00,022.7,021.5,000.0,031.0,024.0,16.8,0000.0,0003.81,0006.18,0003.62
2024-01-27 04:57:00,SystemResetWarning,0836.7,5.01,000.00,022.7,021.5,000.0,031.0,024.0,16.8,0000.0,0003.81,0006.16,0003.63
2024-01-27 04:58:00,SystemResetWarning,0836.8,5.00,000.00,022.7,021.5,000.0,031.0,024.0,16.7,0000.0,0003.81,0006.04,0003.66
2024-01-27 04:59:00,SystemResetWarning,0836.8,4.99,000.00,022.7,021.5,000.0,031.0,024.0,16.7,0000.0,0003.85,0006.14,0003.70
